TIBA-1

Last updated on Sat Jul 05 2025 00:02:47 GMT+0000 (Coordinated Universal Time)

1 44800U 19080A 25185.64381022 .00000170 00000+0 00000+0 0 9997 2 44800 0.0545 20.8388 0002192 92.0595 77.2424 1.00272969 20593
UTC large
Height (km)
Speed (km/s)
/
Latitude / Longitude
Inclination (degrees)
Orbital Period (minutes)
Azimuth
Elevation
Range (km)
Doppler Factor

Next 0 passes for location: London (51.5072 / 0.1276)

Sorry there are no passes over London.